This is the latest recevied weather packets stored in our database for station/object KC0UFP. If no packets are shown the sender has not sent any weather packets the latest 10 day(s).
| Time | Temp. | Humidity | Pressure | Rain* | Wind** | Luminosity | Snow |
|---|---|---|---|---|---|---|---|
| 1777682456 | 16.11° C | 42% | 1016 hPa | 0 mm | - | 6 W/m² | - |
| 1777682155 | 16.11° C | 39% | 1015.9 hPa | 0 mm | - | 11 W/m² | - |
| 1777681851 | 16.11° C | 39% | 1015.8 hPa | 0 mm | - | 16 W/m² | - |
| 1777681547 | 16.11° C | 40% | 1015.9 hPa | 0 mm | - | 22 W/m² | - |
| 1777681245 | 16.11° C | 40% | 1015.6 hPa | 0 mm | - | 29 W/m² | - |
| 1777680943 | 16.67° C | 39% | 1015.6 hPa | 0 mm | - | 37 W/m² | - |
| 1777680639 | 16.67° C | 39% | 1015.7 hPa | 0 mm | - | 47 W/m² | - |
| 1777680338 | 16.67° C | 37% | 1015.6 hPa | 0 mm | - | 53 W/m² | - |
| 1777680035 | 16.67° C | 38% | 1015.6 hPa | 0 mm | - | 62 W/m² | - |
| 1777679730 | 16.67° C | 38% | 1015.4 hPa | 0 mm | - | 79 W/m² | - |
| 1777679426 | 16.67° C | 38% | 1015.5 hPa | 0 mm | - | 84 W/m² | - |
| 1777679122 | 16.67° C | 36% | 1015.4 hPa | 0 mm | - | 91 W/m² | - |
| 1777678820 | 16.67° C | 37% | 1015.2 hPa | 0 mm | - | 97 W/m² | - |
| 1777678518 | 17.22° C | 36% | 1015.4 hPa | 0 mm | - | 111 W/m² | - |
| 1777678215 | 17.22° C | 36% | 1015.2 hPa | 0 mm | - | 119 W/m² | - |
| 1777677911 | 17.22° C | 36% | 1015.4 hPa | 0 mm | - | 119 W/m² | - |
| 1777677608 | 17.22° C | 34% | 1015.3 hPa | 0 mm | - | 153 W/m² | - |
| 1777677306 | 17.78° C | 36% | 1015.5 hPa | 0 mm | - | 138 W/m² | - |
| 1777677004 | 17.78° C | 35% | 1015.5 hPa | 0 mm | - | 199 W/m² | - |
| 1777676703 | 17.78° C | 34% | 1015.3 hPa | 0 mm | - | 214 W/m² | - |
| 1777676400 | 17.78° C | 35% | 1015.2 hPa | 0 mm | - | 259 W/m² | - |
| 1777676098 | 17.78° C | 37% | 1015.2 hPa | 0 mm | - | 286 W/m² | - |
| 1777675793 | 17.78° C | 35% | 1014.9 hPa | 0 mm | - | 298 W/m² | - |
| 1777675491 | 17.78° C | 34% | 1015 hPa | 0 mm | - | 373 W/m² | - |
| 1777675188 | 17.78° C | 34% | 1014.8 hPa | 0 mm | - | 361 W/m² | - |
* Rain latest hour (hover to see other rain measurements)
** Current wind speed in m/s (hover to see current wind gust speed)